Flag for Switzerland Weather past 2 weeks in Uster, Zurich, Switzerland

Now
85 °F

Pleasantly warm.


Feels Like: 83 °F
Forecast: 61 / 87 °F
Wind: 3 mph from Southwest

Location: Zurich Town / Ville.

Current Time: Aug 30, 2015 at 1:57:49 PM

Latest Report: Aug 30, 2015 at 1:00 PM


Visibility: N/A

Pressure: 30.06 "Hg

Humidity: 33%

Dew point: 52 °F

Location of UsterLocation

Historic Weather in Uster — Graph

°F

Uster temperature yesterday

Maximum temperature yesterday: 88 °F (at 5:00 PM)
Minimum temperature yesterday: 64 °F (at 7:00 AM)
Average temperature yesterday: 76 °F

Past Weeks' High & Low Weather Summary

 TemperatureHumidityPressure
High88 °F (Aug 29, 5:00 PM)98% (Aug 16, 4:00 AM)30.26 "Hg (Aug 16, 4:00 AM)
Low52 °F (Aug 20, 7:00 AM)34% (Aug 28, 5:00 PM)29.70 "Hg (Aug 24, 2:00 PM)
Average64 °F73%30.01 "Hg
* Reported Aug 15 12:00 Noon — Aug 30 12:00 Noon, Uster, Weather by CustomWeather, © 2015

Note: Actual official high and low records may vary slightly from our data, if they occured in-between our weather recording intervals... More about our weather records

Advertising

Uster weather history for previous 24 hours

 ConditionsComfort  
Time TempWeatherWind HumidityBarometerVisibility
12:00 PM
Sun, Aug 30
82 °FWarm.3 mph50%30.09 "HgN/A
11:00 AM78 °FWarm.2 mph54%30.11 "HgN/A
10:00 AM75 °FMild.1 mph67%30.12 "HgN/A
9:00 AM72 °FMild.No wind72%30.13 "HgN/A
8:00 AM69 °FMild.1 mph79%30.13 "HgN/A
7:00 AM70 °FMild.3 mph73%30.12 "HgN/A
6:00 AM71 °FMild.3 mph71%30.11 "HgN/A
5:00 AM70 °FMild.2 mph83%30.10 "HgN/A
4:00 AM71 °FMild.2 mph80%30.10 "HgN/A
3:00 AM71 °FMild.2 mph76%30.10 "HgN/A
2:00 AM72 °FMild.1 mph73%30.10 "HgN/A
1:00 AM72 °FMild.1 mph72%30.09 "HgN/A
12:00 AM73 °FMild.1 mph69%30.08 "HgN/A
10:00 PM
Sat, Aug 29
76 °FMild.5 mph60%30.06 "HgN/A
9:00 PM77 °FWarm.5 mph58%30.04 "HgN/A
7:00 PM84 °FWarm.7 mph46%30.01 "HgN/A
6:00 PM87 °FPleasantly warm.7 mph36%30.00 "HgN/A
5:00 PM88 °FHot.7 mph35%30.01 "HgN/A
4:00 PM87 °FPleasantly warm.7 mph37%30.03 "HgN/A
3:00 PM88 °FWarm.6 mph43%30.05 "HgN/A
1:00 PM81 °FWarm.3 mph54%30.11 "HgN/A
Weather by CustomWeather, © 2015

See weather overviewHow to use our weather pages